| time (UTC) | temp C | wind direction | speed KPH | gust KPH | rain 1hr cm | rain 24hr cm | rain mn cm | humidity % | barometer mb |
| 20260906164813 | 17 | 203 | 0.0 | 0.0 | 0.00 | 0.00 | 0.00 | 78 | 1024.3 |
| 20260906161808 | 13 | 215 | 1.6 | 1.6 | 0.00 | 0.00 | 0.00 | 87 | 1024.6 |
| 20260906154807 | 12 | 201 | 0.0 | 0.0 | 0.00 | 0.00 | 0.00 | 90 | 1024.7 |
| 20260906151807 | 11 | 205 | 0.0 | 0.0 | 0.00 | 0.00 | 0.00 | 97 | 1024.0 |
| 20260906144804 | 10 | 199 | 0.0 | 0.0 | 0.00 | 0.00 | 0.00 | 99 | 1024.4 |
| 20260906141801 | 8 | 207 | 0.0 | 0.0 | 0.00 | 0.00 | 0.00 | 99 | 1024.3 |
| 20260906134757 | 8 | 191 | 1.6 | 1.6 | 0.00 | 0.00 | 0.00 | 99 | 1024.0 |
| 20260906131753 | 8 | 198 | 0.0 | 0.0 | 0.00 | 0.00 | 0.00 | 99 | 1024.1 |
| 20260906124752 | 9 | 181 | 0.0 | 1.6 | 0.00 | 0.00 | 0.00 | 99 | 1024.1 |
| 20260906121751 | 8 | 198 | 1.6 | 1.6 | 0.00 | 0.00 | 0.00 | 99 | 1024.3 |
| 20260906114746 | 10 | 198 | 0.0 | 0.0 | 0.00 | 0.00 | 0.00 | 99 | 1024.3 |
| 20260906111744 | 9 | 201 | 0.0 | 0.0 | 0.00 | 0.00 | 0.00 | 99 | 1024.1 |
| 20260906104742 | 9 | 207 | 0.0 | 0.0 | 0.00 | 0.00 | 0.00 | 99 | 1023.8 |
| 20260906101741 | 10 | 200 | 0.0 | 0.0 | 0.00 | 0.00 | 0.00 | 99 | 1024.0 |
| 20260906094738 | 10 | 200 | 0.0 | 0.0 | 0.00 | 0.00 | 0.00 | 99 | 1024.1 |
| 20260906091733 | 10 | 212 | 0.0 | 0.0 | 0.00 | 0.00 | 0.00 | 99 | 1024.0 |
| 20260906084730 | 10 | 193 | 0.0 | 0.0 | 0.00 | 0.00 | 0.00 | 99 | 1023.8 |
| 20260906081730 | 11 | 202 | 0.0 | 0.0 | 0.00 | 0.00 | 0.00 | 99 | 1024.1 |
| 20260906074730 | 11 | 203 | 1.6 | 1.6 | 0.00 | 0.00 | 0.00 | 99 | 1024.0 |
| 20260906071729 | 11 | 196 | 0.0 | 0.0 | 0.00 | 0.00 | 0.00 | 98 | 1024.3 |
| 20260906064728 | 11 | 199 | 0.0 | 0.0 | 0.00 | 0.00 | 0.00 | 98 | 1024.5 |
| 20260906061728 | 12 | 199 | 0.0 | 0.0 | 0.00 | 0.00 | 0.00 | 97 | 1024.5 |
| 20260906054726 | 12 | 199 | 0.0 | 0.0 | 0.00 | 0.00 | 0.00 | 96 | 1024.7 |
| 20260906051725 | 13 | 206 | 0.0 | 0.0 | 0.00 | 0.00 | 0.00 | 95 | 1024.6 |
| 20260906044722 | 13 | 199 | 3.2 | 3.2 | 0.00 | 0.00 | 0.00 | 91 | 1024.8 |
| 20260906041721 | 15 | 205 | 0.0 | 0.0 | 0.00 | 0.00 | 0.00 | 87 | 1024.8 |
| 20260906034721 | 15 | 203 | 0.0 | 0.0 | 0.00 | 0.00 | 0.00 | 85 | 1024.8 |
| 20260906031721 | 16 | 204 | 0.0 | 0.0 | 0.00 | 0.00 | 0.00 | 78 | 1024.3 |
| 20260906024716 | 17 | 186 | 0.0 | 0.0 | 0.00 | 0.00 | 0.00 | 73 | 1024.3 |
| 20260906021717 | 18 | 182 | 0.0 | 0.0 | 0.00 | 0.00 | 0.00 | 68 | 1023.8 |
| 20260906014716 | 19 | 206 | 0.0 | 0.0 | 0.00 | 0.00 | 0.00 | 65 | 1023.7 |
| 20260906011716 | 20 | 205 | 0.0 | 0.0 | 0.00 | 0.00 | 0.00 | 61 | 1023.6 |
| 20260906004713 | 20 | 206 | 0.0 | 0.0 | 0.00 | 0.00 | 0.00 | 60 | 1023.7 |
| 20260906001707 | 20 | 212 | 0.0 | 0.0 | 0.00 | 0.00 | 0.00 | 65 | 1023.6 |
| 20260905234705 | 20 | 217 | 0.0 | 0.0 | 0.00 | 0.00 | 0.00 | 61 | 1023.9 |
| 20260905231704 | 21 | 213 | 0.0 | 1.6 | 0.00 | 0.00 | 0.00 | 56 | 1023.9 |
| 20260905224704 | 20 | 202 | 1.6 | 1.6 | 0.00 | 0.00 | 0.00 | 62 | 1024.6 |
| 20260905221700 | 18 | 211 | 0.0 | 0.0 | 0.00 | 0.00 | 0.00 | 69 | 1024.8 |
| 20260905214657 | 17 | 182 | 1.6 | 1.6 | 0.00 | 0.00 | 0.00 | 72 | 1025.0 |
| 20260905211656 | 17 | 207 | 0.0 | 0.0 | 0.00 | 0.00 | 0.00 | 74 | 1025.2 |
| 20260905204652 | 17 | 152 | 0.0 | 0.0 | 0.00 | 0.00 | 0.00 | 73 | 1025.6 |
| 20260905201647 | 16 | 209 | 1.6 | 1.6 | 0.00 | 0.00 | 0.00 | 75 | 1025.4 |
| 20260905194643 | 16 | 184 | 0.0 | 1.6 | 0.00 | 0.00 | 0.00 | 78 | 1025.7 |
| 20260905191642 | 16 | 217 | 1.6 | 1.6 | 0.00 | 0.00 | 0.00 | 77 | 1025.9 |
| 20260905184637 | 17 | 197 | 0.0 | 1.6 | 0.00 | 0.00 | 0.00 | 74 | 1026.2 |
| 20260905181637 | 16 | 168 | 0.0 | 0.0 | 0.00 | 0.00 | 0.00 | 76 | 1026.2 |
| 20260905174634 | 16 | 111 | 0.0 | 1.6 | 0.00 | 0.00 | 0.00 | 78 | 1026.3 |
| 20260905171629 | 15 | 202 | 1.6 | 3.2 | 0.00 | 0.00 | 0.00 | 78 | 1026.2 |